Temperature
19 19 19 19 19 19 19 19 18 19 18 18 18 18 19 19 19 19 19 19 19 19 19 19 19 19 19 19 19 19 18 18 18 18 18 18 18 17 17 17 17 17 17
19 19 19 18 18 18 19 19 19 19 19 19 19 19 19 19 18 19 19 19 19 19 19 19 19 19 19 19 19 19 19 19 18 18 18 18 18 18 17 17 17 17 17
19 19 18 18 18 18 18 18 18 18 18 18 18 18 18 19 18 18 18 18 18 18 18 19 19 19 19 19 19 19 19 19 19 18 18 18 18 18 18 17 17 17 17
18 18 18 18 18 18 18 18 18 18 18 18 18 18 18 18 18 18 18 18 18 18 18 18 18 18 19 19 19 19 19 19 19 19 18 18 18 18 18 18 18 17 17
18 18 18 18 18 18 17 17 17 17 17 18 18 18 18 18 18 18 18 18 18 18 18 18 18 18 18 18 18 19 19 19 19 19 19 19 18 18 18 18 18 17 17
18 18 17 17 17 17 17 17 17 17 17 17 17 17 17 18 18 18 18 18 18 18 18 18 18 18 18 18 18 18 19 19 19 19 19 19 18 18 18 18 18 17 17
18 18 18 17 17 17 17 17 17 17 17 17 17 17 17 18 18 18 18 18 18 18 18 18 18 18 18 18 18 18 18 18 18 19 19 19 18 18 18 18 18 17 17
18 18 18 18 17 17 17 17 16 16 16 16 16 16 16 17 18 18 18 18 18 18 18 18 18 18 18 18 17 18 18 18 18 18 18 19 18 18 18 18 18 18 17
18 18 18 18 17 17 17 16 16 16 16 16 16 16 16 17 17 18 18 18 18 18 18 17 17 17 17 17 17 17 18 18 18 18 18 18 18 18 18 18 18 17 17
18 18 18 17 17 17 17 17 16 16 16 16 16 16 16 15 15 16 17 17 17 17 17 17 17 17 17 17 17 17 17 17 17 17 18 18 18 18 18 18 18 17 17
18 18 17 17 17 17 17 16 17 16 16 15 15 15 15 15 15 15 15 16 17 17 17 17 17 17 17 17 17 17 17 17 17 17 17 17 17 17 17 17 17 17 17
17 17 17 17 17 17 16 16 16 16 16 15 15 15 15 15 15 15 15 15 16 16 16 17 17 17 16 16 16 16 16 17 17 17 17 17 17 17 17 17 17 17 17
17 17 17 16 16 16 16 16 16 16 16 15 15 15 14 14 15 15 15 15 15 15 16 16 16 16 16 16 16 16 16 16 16 16 16 16 17 17 17 17 17 17 17
16 16 16 16 16 15 15 15 15 15 15 15 15 15 14 14 14 14 14 14 14 15 15 15 16 16 16 15 15 16 16 16 16 16 16 16 16 16 16 16 17 17 17
15 15 15 15 15 15 15 15 15 15 15 14 14 14 14 14 14 14 14 14 14 14 14 15 15 15 15 15 15 15 15 15 15 15 15 15 15 16 16 16 16 16 16
14 15 15 15 15 14 14 14 14 14 14 14 14 14 14 14 14 14 14 14 14 14 14 14 15 15 15 15 15 15 15 15 15 15 15 15 15 15 15 15 16 16 16
13 14 14 14 14 14 14 14 14 14 14 14 14 14 14 14 14 14 14 14 14 14 14 14 14 14 14 14 14 14 14 14 14 14 14 14 14 14 15 15 15 15 15
12 12 12 13 13 13 13 13 13 13 13 13 13 13 14 14 14 14 14 14 14 14 14 14 13 14 14 14 14 13 13 13 13 13 13 13 14 14 14 14 14 14 14
11 11 12 12 12 12 13 13 13 13 13 13 13 13 13 13 13 14 14 14 14 14 14 13 13 13 13 13 13 13 12 13 12 12 12 13 13 13 13 13 13 13 13
10 11 11 11 11 12 12 12 12 13 13 13 13 13 13 13 13 13 14 14 13 13 13 13 13 13 13 12 13 12 12 12 12 12 12 12 12 12 12 12 12 12 13
10 10 10 10 11 11 11 12 12 12 12 12 12 12 13 13 13 13 13 13 13 13 13 12 12 12 12 12 12 12 12 12 11 11 11 11 11 11 11 12 12 12 12
10 10 10 10 10 10 11 11 11 12 12 12 12 12 12 12 13 13 13 13 13 13 12 12 12 12 12 12 12 12 12 11 11 11 11 11 11 11 11 11 11 11 11
9 9 9 9 10 10 10 10 11 11 12 12 12 12 12 12 12 12 12 12 12 12 12 12 12 12 12 12 12 12 12 12 12 11 11 11 11 11 11 11 11 11 11
9 9 9 9 9 9 9 10 10 10 11 11 11 11 11 12 12 12 12 12 12 12 12 12 12 12 12 12 12 12 12 11 11 11 11 11 11 10 10 10 10 10 10
8 8 8 9 9 9 9 9 9 10 10 11 11 11 11 11 11 11 11 11 11 11 11 11 11 11 11 11 11 11 11 11 11 11 11 11 11 10 10 10 10 10 10
8 8 8 8 8 9 9 9 9 9 10 10 10 11 11 11 11 11 11 11 11 10 11 11 11 11 11 11 11 11 11 11 11 11 11 11 11 10 10 9 9 9 9
Wind_Speed
4 4 3 3 4 5 4 4 5 6 7 6 7 7 7 8 9 8 7 17 20 20 20 19 19 19 20 20 20 21 22 22 23 24 25 26 25 25 25 24 23 23 22
2 3 4 4 4 5 5 3 6 6 5 5 6 7 7 8 8 8 9 13 20 21 21 20 20 20 20 21 21 22 22 23 23 24 25 26 27 27 26 26 25 25 24
2 3 4 5 5 6 5 5 6 5 7 7 7 8 8 7 8 8 10 10 12 18 21 22 22 22 22 22 22 22 22 23 23 24 25 26 27 28 28 27 27 26 26
3 2 4 5 4 5 4 5 6 6 6 6 6 7 8 7 10 8 9 10 11 12 16 22 23 23 23 23 23 23 23 23 23 24 25 25 27 28 28 28 28 27 27
3 2 3 4 4 4 4 6 5 4 6 6 7 8 9 9 9 11 10 9 11 13 13 17 22 24 23 23 23 23 22 22 23 23 24 24 26 27 28 28 28 28 27
2 2 4 3 4 4 4 4 5 5 5 6 9 9 7 8 8 9 11 10 9 12 15 15 14 18 23 23 24 23 23 22 22 22 23 23 25 26 27 28 28 28 27
3 2 4 4 4 4 4 5 5 6 6 5 5 7 8 10 10 9 10 9 10 10 10 11 11 11 12 21 23 22 22 21 20 20 20 21 23 24 25 26 27 27 27
1 3 3 4 4 4 6 5 4 5 6 5 4 5 5 6 7 9 8 9 10 8 9 11 10 9 9 8 12 19 20 20 19 18 18 19 20 21 24 26 26 26 27
2 2 3 4 4 5 5 5 5 6 6 5 5 4 4 4 5 4 6 7 6 7 7 7 8 7 10 9 9 12 15 15 15 16 16 16 17 19 21 23 25 26 26
3 3 4 4 4 4 6 6 4 5 6 7 5 5 6 6 5 5 5 5 6 6 7 8 7 5 8 7 8 8 9 9 12 14 14 14 15 16 18 20 23 25 26
5 6 5 4 4 5 5 5 6 6 6 7 6 6 7 6 7 7 8 6 4 4 5 5 5 4 3 5 5 6 7 7 8 9 10 11 11 13 15 16 19 22 24
5 5 5 4 4 5 5 5 6 7 7 7 7 7 7 6 6 6 8 8 6 5 5 3 3 2 1 3 5 6 6 6 5 5 5 5 6 7 9 11 14 16 19
5 3 2 1 4 5 6 6 7 7 8 8 8 7 7 7 7 7 8 8 7 5 4 3 3 2 2 5 6 8 7 7 6 5 5 5 5 4 3 4 7 10 13
6 5 3 4 5 6 7 6 6 8 7 7 9 9 7 7 7 7 7 7 6 5 4 3 1 2 2 5 8 10 8 9 9 8 8 8 8 7 7 6 4 2 4
9 8 7 7 7 7 7 7 7 8 8 8 8 8 8 7 7 7 7 7 7 6 5 3 2 2 4 6 9 9 9 11 12 11 11 11 11 10 10 10 9 8 7
8 9 9 9 9 8 8 8 8 8 8 8 7 8 8 7 7 6 7 7 8 7 5 2 2 4 5 7 9 10 12 14 13 14 14 14 13 13 13 13 13 12 11
9 9 10 10 10 10 9 8 9 9 9 9 8 8 8 8 7 6 6 6 6 6 5 2 2 4 6 8 9 9 11 10 11 15 16 16 16 16 16 16 16 16 16
10 10 10 10 11 11 10 10 10 10 9 9 8 7 7 7 6 5 5 5 5 5 6 6 4 4 6 9 10 9 8 10 10 14 16 17 18 18 18 18 18 18 18
10 10 10 11 11 11 10 10 10 9 9 8 7 7 6 5 5 4 4 4 4 5 6 7 6 4 5 7 9 9 11 9 10 13 16 16 17 18 18 18 18 18 18
10 10 10 10 11 11 11 10 9 9 9 7 6 6 5 4 4 4 4 3 3 5 6 8 7 6 6 7 7 9 9 7 8 9 11 13 16 18 17 17 17 16 16
12 10 10 10 10 11 12 10 7 9 8 7 6 4 2 1 2 2 3 3 5 5 7 8 8 7 6 7 6 6 8 8 8 8 8 8 8 8 10 13 14 14 15
10 10 10 10 11 13 12 9 7 7 7 7 5 4 4 3 3 4 5 5 6 8 8 8 7 9 7 6 6 7 8 8 5 5 7 7 7 7 6 9 11 13 13
11 10 10 10 11 11 12 11 9 7 8 7 6 6 6 5 6 6 8 8 8 8 8 7 9 8 7 6 7 7 7 6 5 6 6 7 7 7 6 10 12 12 12
10 10 10 11 11 12 11 11 10 8 8 8 8 7 6 7 7 8 9 9 8 7 7 8 8 8 8 6 6 7 8 7 6 5 6 6 7 7 7 7 10 11 11
10 11 11 11 11 10 9 10 9 7 7 8 8 8 9 8 11 12 11 11 11 9 12 15 14 14 13 11 7 6 7 7 6 4 3 4 6 7 5 5 7 9 10
11 12 11 11 10 9 9 10 9 6 7 7 7 8 11 12 13 12 11 12 13 11 12 12 12 11 10 9 8 5 3 6 7 4 2 3 6 5 4 4 5 7 7
Wind_Direction
238 254 266 280 277 268 235 231 249 244 244 256 257 253 245 243 250 246 218 193 194 200 205 210 217 221 224 224 224 223 223 223 221 220 219 220 221 221 221 220 220 220 218
261 304 292 283 273 274 282 278 277 271 261 261 266 268 264 263 260 256 245 218 209 208 210 214 219 222 224 225 225 224 223 223 222 220 220 220 220 220 221 221 221 220 219
265 265 274 274 269 281 284 277 273 274 269 264 261 262 263 256 256 252 252 250 229 218 217 219 221 223 224 225 225 224 223 223 222 221 221 220 220 220 220 221 220 220 219
291 274 270 270 276 273 263 260 255 258 261 262 262 261 259 254 253 251 250 245 241 239 228 224 224 225 226 227 227 225 223 223 223 222 222 221 221 220 220 220 220 219 219
321 305 285 281 274 267 266 273 273 258 263 261 260 255 251 249 248 250 247 243 237 234 236 231 223 224 226 228 228 226 224 223 223 223 223 222 222 221 220 219 219 219 218
338 341 296 309 313 295 285 284 291 281 267 261 266 269 261 252 243 239 242 244 238 235 235 239 227 225 226 227 228 226 226 225 224 224 224 223 222 221 219 219 219 219 218
354 327 307 327 311 303 311 303 299 296 287 273 271 274 263 253 245 236 233 236 241 240 235 232 229 225 222 224 227 228 226 225 223 222 223 222 222 221 219 218 218 219 218
342 303 355 330 326 325 299 291 299 292 293 294 284 290 282 264 247 248 236 233 236 236 236 237 228 223 221 212 225 229 228 226 224 222 221 221 221 222 220 219 218 218 218
264 282 303 299 313 305 308 328 307 299 298 297 274 263 278 284 318 281 263 247 239 236 237 242 233 219 219 212 217 225 227 227 229 229 226 223 222 222 222 221 219 218 218
235 239 250 264 285 295 298 299 330 324 304 295 286 263 256 273 283 296 290 275 261 249 242 246 245 223 216 211 206 201 206 214 227 232 230 225 224 223 223 223 222 220 219
236 226 223 226 251 268 281 296 300 292 290 288 294 295 287 276 253 258 279 281 275 265 253 241 241 238 202 187 176 180 187 193 209 224 227 226 225 225 224 225 225 224 222
251 230 222 208 235 260 280 287 283 280 276 282 284 282 280 277 272 261 265 275 272 263 261 257 244 231 198 146 150 151 157 155 165 193 201 202 205 212 218 223 226 227 226
284 276 279 249 257 265 269 269 271 273 274 275 273 271 270 269 273 270 267 272 273 268 253 252 235 201 178 120 124 128 120 127 132 141 134 125 121 125 155 201 221 225 226
310 316 308 268 259 263 270 270 274 274 273 273 277 275 273 269 264 262 260 264 271 264 249 239 231 175 140 122 130 126 115 113 113 113 112 107 100 96 94 94 102 149 206
308 314 310 296 280 268 265 270 270 270 273 272 274 277 274 270 265 260 253 244 242 251 248 223 202 162 138 118 136 124 116 111 109 107 105 101 97 93 89 87 86 85 90
309 306 300 294 287 277 267 263 269 269 271 273 270 270 274 273 267 262 255 246 235 233 239 205 180 153 142 133 126 114 112 106 101 104 101 98 95 92 88 85 84 83 82
305 297 291 284 281 278 272 264 263 268 270 273 276 276 274 274 269 267 262 251 237 222 219 203 166 151 140 126 120 120 121 108 102 101 101 97 94 91 88 85 83 82 81
301 298 292 285 279 277 274 269 267 268 268 271 274 276 279 280 272 266 260 251 238 212 189 175 159 146 135 133 133 129 123 113 108 103 102 99 96 92 88 86 83 81 80
287 291 293 289 283 279 277 271 267 266 265 266 271 276 277 279 274 266 257 245 225 198 174 162 156 141 131 138 135 128 119 116 112 111 103 99 98 94 91 87 84 82 82
281 282 285 290 289 283 276 270 267 265 263 261 263 268 271 274 266 255 241 222 188 165 158 152 147 139 133 135 133 130 127 126 126 123 108 106 101 95 92 90 89 87 86
278 279 283 289 291 286 276 271 268 264 262 255 248 246 248 259 261 241 209 181 163 153 150 146 142 138 138 144 143 142 135 128 125 128 125 123 116 104 97 92 91 93 92
274 277 284 289 290 291 291 278 262 265 259 247 231 207 190 164 129 124 124 129 139 149 149 145 144 146 147 146 142 143 138 137 134 144 138 137 129 113 105 98 103 102 98
279 278 281 284 284 286 281 265 253 257 251 236 220 205 194 169 166 141 121 111 105 114 131 139 137 136 135 136 132 135 139 137 126 146 130 121 120 110 103 112 119 112 106
282 282 279 279 280 283 273 260 252 251 246 232 215 197 175 166 165 148 133 116 102 96 112 114 116 113 112 111 113 123 121 111 103 108 120 125 129 123 119 123 133 125 117
281 277 275 271 274 277 263 252 246 247 240 227 205 180 166 162 158 152 134 122 111 99 90 98 103 105 101 97 103 122 132 130 123 111 99 117 132 129 129 134 147 144 132
279 277 272 270 272 272 257 241 231 242 237 219 193 170 162 152 154 153 141 132 125 122 118 109 102 102 104 98 88 93 125 141 135 122 105 106 141 140 131 142 149 159 152
Height
1525 1526 1526 1526 1527 1527 1527 1526 1526 1526 1527 1527 1528 1528 1528 1529 1529 1530 1530 1530 1530 1530 1531 1532 1533 1533 1535 1536 1537 1539 1540 1542 1544 1546 1548 1550 1552 1554 1556 1558 1560 1562 1564
1522 1522 1522 1522 1522 1523 1523 1523 1522 1522 1523 1523 1523 1523 1523 1524 1524 1525 1525 1525 1526 1526 1527 1527 1528 1529 1530 1531 1533 1534 1536 1537 1539 1541 1543 1545 1547 1549 1552 1554 1556 1558 1560
1518 1518 1518 1518 1518 1518 1518 1518 1518 1518 1518 1518 1518 1518 1518 1518 1518 1519 1520 1520 1520 1520 1521 1522 1523 1524 1525 1526 1528 1529 1531 1532 1534 1536 1538 1540 1542 1544 1547 1549 1551 1553 1555
1515 1514 1514 1514 1514 1514 1513 1513 1513 1513 1513 1513 1512 1512 1512 1512 1512 1513 1513 1514 1514 1515 1515 1516 1517 1518 1519 1520 1522 1523 1525 1527 1529 1530 1532 1534 1537 1539 1541 1544 1546 1548 1550
1512 1511 1511 1511 1511 1510 1510 1510 1509 1508 1508 1508 1507 1507 1506 1506 1506 1506 1506 1507 1508 1508 1509 1510 1511 1512 1513 1514 1516 1517 1519 1520 1522 1524 1526 1528 1531 1533 1536 1538 1541 1543 1545
1509 1508 1508 1508 1507 1507 1506 1506 1505 1505 1504 1503 1503 1502 1501 1500 1500 1499 1500 1500 1501 1501 1502 1503 1504 1505 1506 1507 1509 1510 1512 1514 1516 1518 1520 1523 1525 1527 1530 1532 1535 1537 1540
1507 1506 1505 1505 1504 1504 1503 1502 1501 1501 1500 1500 1499 1497 1496 1495 1494 1493 1494 1494 1494 1495 1496 1496 1498 1499 1500 1501 1502 1504 1506 1507 1509 1512 1514 1516 1519 1521 1524 1526 1529 1531 1534
1505 1504 1503 1502 1501 1501 1500 1499 1498 1497 1496 1496 1496 1494 1492 1491 1489 1489 1488 1488 1489 1489 1490 1491 1492 1493 1494 1495 1496 1498 1500 1501 1503 1505 1508 1510 1512 1515 1517 1520 1522 1525 1528
1502 1501 1500 1499 1499 1498 1497 1496 1495 1494 1493 1492 1492 1492 1490 1487 1486 1484 1484 1484 1484 1484 1485 1486 1487 1487 1489 1490 1490 1492 1494 1495 1497 1499 1501 1503 1505 1508 1511 1513 1516 1519 1521
1499 1498 1497 1496 1495 1495 1494 1493 1492 1491 1490 1488 1488 1488 1487 1486 1484 1481 1480 1480 1480 1479 1480 1481 1482 1483 1483 1484 1485 1486 1488 1489 1491 1493 1495 1497 1499 1501 1504 1507 1509 1512 1515
1496 1495 1494 1493 1492 1491 1490 1489 1488 1487 1485 1484 1483 1482 1482 1481 1480 1479 1476 1476 1476 1475 1475 1476 1477 1478 1478 1479 1479 1480 1482 1484 1486 1487 1489 1491 1493 1495 1497 1500 1503 1505 1508
1493 1492 1491 1489 1488 1487 1486 1485 1484 1482 1481 1480 1478 1477 1477 1476 1475 1474 1472 1471 1471 1471 1471 1471 1472 1473 1474 1474 1475 1476 1477 1480 1481 1482 1484 1486 1487 1489 1492 1494 1496 1499 1502
1489 1488 1487 1485 1484 1483 1482 1481 1479 1478 1476 1475 1473 1472 1471 1470 1470 1469 1468 1467 1466 1466 1466 1466 1467 1468 1469 1470 1471 1472 1474 1476 1477 1478 1480 1481 1483 1484 1486 1488 1491 1493 1496
1484 1483 1481 1480 1479 1478 1477 1476 1474 1473 1472 1470 1469 1467 1466 1465 1464 1463 1463 1462 1461 1461 1461 1461 1462 1464 1465 1466 1468 1469 1471 1472 1473 1475 1477 1478 1479 1481 1482 1484 1486 1488 1490
1477 1476 1476 1475 1474 1473 1472 1471 1469 1468 1466 1465 1463 1462 1460 1459 1458 1457 1456 1457 1457 1456 1456 1457 1458 1459 1461 1463 1465 1466 1468 1470 1471 1473 1474 1475 1477 1478 1479 1480 1482 1484 1486
1470 1469 1469 1468 1468 1467 1466 1465 1464 1463 1461 1459 1458 1456 1454 1453 1452 1451 1450 1450 1451 1452 1452 1452 1454 1456 1458 1460 1462 1464 1466 1467 1469 1471 1472 1474 1475 1476 1477 1478 1479 1481 1482
1464 1463 1461 1461 1460 1459 1459 1458 1457 1456 1455 1453 1452 1451 1449 1448 1446 1445 1444 1444 1444 1446 1447 1448 1451 1453 1456 1458 1460 1462 1464 1466 1468 1470 1471 1473 1474 1475 1476 1477 1478 1479 1481
1457 1456 1454 1453 1452 1452 1451 1451 1450 1450 1449 1447 1446 1445 1444 1443 1441 1439 1438 1438 1439 1440 1442 1444 1447 1450 1453 1456 1458 1461 1463 1465 1467 1469 1471 1472 1473 1474 1476 1477 1478 1479 1480
1450 1448 1447 1446 1445 1444 1444 1443 1443 1443 1442 1441 1441 1440 1438 1437 1436 1435 1434 1433 1434 1435 1437 1440 1443 1447 1451 1454 1457 1460 1462 1465 1467 1469 1471 1473 1474 1475 1476 1477 1478 1479 1480
1444 1442 1440 1439 1438 1437 1436 1436 1436 1435 1435 1435 1434 1434 1433 1432 1431 1430 1430 1429 1430 1431 1434 1437 1440 1445 1448 1452 1455 1458 1462 1465 1467 1470 1472 1473 1474 1476 1477 1478 1479 1480 1481
1438 1436 1434 1432 1431 1429 1429 1429 1428 1428 1428 1428 1428 1428 1428 1427 1427 1427 1426 1426 1427 1429 1431 1434 1438 1442 1446 1450 1454 1458 1461 1464 1468 1471 1472 1474 1476 1477 1479 1480 1481 1482 1483
1431 1429 1427 1426 1424 1423 1422 1421 1421 1421 1421 1422 1422 1422 1422 1423 1423 1423 1424 1424 1425 1427 1429 1432 1436 1440 1445 1449 1453 1457 1460 1464 1468 1472 1473 1475 1477 1478 1480 1481 1482 1483 1484
1424 1422 1421 1419 1417 1416 1415 1414 1414 1414 1415 1415 1416 1417 1418 1419 1420 1421 1422 1423 1425 1427 1430 1433 1436 1439 1444 1448 1452 1456 1460 1464 1467 1470 1473 1476 1479 1480 1482 1483 1484 1485 1486
1417 1415 1413 1412 1410 1409 1408 1407 1406 1407 1408 1409 1410 1412 1413 1415 1417 1418 1420 1422 1424 1427 1430 1433 1436 1440 1444 1448 1452 1456 1460 1464 1468 1471 1474 1477 1479 1481 1483 1485 1485 1486 1487
1409 1408 1406 1405 1404 1402 1401 1400 1400 1400 1401 1403 1405 1407 1409 1411 1414 1416 1418 1420 1423 1427 1431 1434 1438 1441 1445 1449 1453 1457 1461 1464 1467 1471 1475 1477 1479 1481 1484 1485 1486 1487 1488
1401 1400 1398 1398 1397 1395 1394 1393 1393 1394 1395 1397 1400 1402 1405 1408 1411 1414 1417 1419 1423 1427 1431 1435 1439 1443 1447 1451 1454 1457 1460 1464 1467 1471 1474 1477 1479 1481 1484 1486 1487 1488 1489